Вернуться в каталог

FENGYUN 1C DEB

АктивенSSO
NORAD 31338·DEBRIS·🇨🇳 China

Запущен May 10, 1999 с Taiyuan Satellite Launch Center

Loading…

Ближайшие Пролёты (ближайшие 24 часа)

TLE

СвежийSource: Space-Track

Эпоха: Sep 13, 2026, 08:43 UTC

1 31338U 99025BQS 26256.36322022  .00003012  00000-0  13117-2 0  9995
2 31338  98.7025  98.1469 0073013  35.8937 324.7115 14.23317146675617

Отслеживайте FENGYUN 1C DEB в реальном времени с AllMySat

Download on the App Store